PHFVA EFTP-EFMA

Flight info

Callsign PHFVA
Flight time 1h 29m
Altitude 8000
Route VFR
Aircraft PA24/L-SDGRY/S

Departure

Time 2026-04-25 12:11
Airport Tampere-Pirkkala Airport (EFTP)

Arrival

Time 2026-04-25 13:40
Airport Mariehamn Airport (EFMA)
Time Latitude Longitude Altitude Speed Heading
2026-04-25 11:57 61.41767 23.60232 384 ft 0 kts 174°
2026-04-25 12:04 61.41764 23.60233 384 ft 2 kts 177°
2026-04-25 12:04 61.41748 23.60219 384 ft 3 kts 228°
2026-04-25 12:04 61.41732 23.60180 384 ft 4 kts 215°
2026-04-25 12:04 61.41695 23.60186 384 ft 7 kts 155°
2026-04-25 12:05 61.41638 23.60244 383 ft 8 kts 149°
2026-04-25 12:05 61.41587 23.60300 383 ft 9 kts 127°
2026-04-25 12:05 61.41605 23.60461 382 ft 15 kts 66°
2026-04-25 12:05 61.41660 23.60712 378 ft 22 kts 63°
2026-04-25 12:06 61.41737 23.61037 373 ft 28 kts 64°
2026-04-25 12:06 61.41763 23.61147 372 ft 6 kts 64°
2026-04-25 12:06 61.41796 23.61291 370 ft 15 kts 66°
2026-04-25 12:06 61.41850 23.61528 370 ft 21 kts 64°
2026-04-25 12:07 61.41915 23.61825 370 ft 19 kts 66°
2026-04-25 12:07 61.41937 23.61947 370 ft 5 kts 105°
2026-04-25 12:07 61.41910 23.62012 370 ft 9 kts 156°
2026-04-25 12:07 61.41893 23.62028 370 ft 0 kts 155°
2026-04-25 12:09 61.41892 23.62028 370 ft 0 kts 155°
2026-04-25 12:09 61.41893 23.62028 370 ft 0 kts 155°
2026-04-25 12:10 61.41852 23.62065 369 ft 13 kts 157°
2026-04-25 12:10 61.41790 23.62055 371 ft 5 kts 230°
2026-04-25 12:10 61.41779 23.62022 371 ft 0 kts 240°
2026-04-25 12:11 61.41732 23.61849 372 ft 46 kts 244°
2026-04-25 12:11 61.41552 23.61038 522 ft 62 kts 245°
2026-04-25 12:11 61.41338 23.60138 718 ft 78 kts 244°
2026-04-25 12:11 61.41049 23.59144 1014 ft 83 kts 237°
2026-04-25 12:12 61.40668 23.58195 1352 ft 88 kts 234°
2026-04-25 12:12 61.40366 23.57589 1533 ft 94 kts 237°
2026-04-25 12:12 61.40154 23.55906 1749 ft 88 kts 290°
2026-04-25 12:12 61.40490 23.54896 1792 ft 88 kts 324°
2026-04-25 12:13 61.41070 23.54511 1799 ft 88 kts 358°
2026-04-25 12:13 61.41627 23.55211 1717 ft 106 kts 45°
2026-04-25 12:13 61.41684 23.56800 1563 ft 129 kts 109°
2026-04-25 12:13 61.41004 23.57993 1651 ft 126 kts 166°
2026-04-25 12:14 61.40172 23.57910 1671 ft 120 kts 209°
2026-04-25 12:14 61.39471 23.57231 1743 ft 105 kts 219°
2026-04-25 12:14 61.38794 23.56506 1659 ft 110 kts 218°
2026-04-25 12:14 61.38165 23.55800 1697 ft 100 kts 223°
2026-04-25 12:15 61.37590 23.54974 1686 ft 99 kts 227°
2026-04-25 12:15 61.37079 23.54084 1712 ft 96 kts 233°
2026-04-25 12:15 61.36596 23.53128 1817 ft 91 kts 234°
2026-04-25 12:15 61.36104 23.52263 1891 ft 101 kts 232°
2026-04-25 12:16 61.35516 23.51306 1909 ft 112 kts 226°
2026-04-25 12:16 61.34862 23.50317 1949 ft 118 kts 228°
2026-04-25 12:16 61.34230 23.49244 1991 ft 122 kts 231°
2026-04-25 12:16 61.33590 23.48008 2009 ft 125 kts 234°
2026-04-25 12:17 61.32937 23.46796 1942 ft 131 kts 225°
2026-04-25 12:17 61.32260 23.45868 1967 ft 133 kts 222°
2026-04-25 12:17 61.31486 23.44814 1919 ft 138 kts 223°
2026-04-25 12:17 61.30736 23.43674 1898 ft 138 kts 227°
2026-04-25 12:18 61.29977 23.42419 1751 ft 144 kts 227°
2026-04-25 12:18 61.29185 23.41320 1400 ft 135 kts 223°
2026-04-25 12:18 61.28414 23.40146 1016 ft 129 kts 230°
2026-04-25 12:18 61.27803 23.39069 953 ft 109 kts 234°
2026-04-25 12:19 61.26929 23.37075 1002 ft 106 kts 240°
2026-04-25 12:19 61.26193 23.35583 980 ft 116 kts 229°
2026-04-25 12:19 61.25525 23.34666 1078 ft 115 kts 219°
2026-04-25 12:20 61.24825 23.33862 1115 ft 116 kts 221°
2026-04-25 12:20 61.24141 23.33010 1221 ft 113 kts 223°
2026-04-25 12:20 61.23456 23.32164 1272 ft 116 kts 222°
2026-04-25 12:20 61.22733 23.31392 1342 ft 118 kts 217°
2026-04-25 12:21 61.21968 23.30675 1364 ft 124 kts 214°
2026-04-25 12:21 61.21143 23.30078 1377 ft 127 kts 206°
2026-04-25 12:21 61.20277 23.29592 1389 ft 130 kts 203°
2026-04-25 12:21 61.19370 23.29316 1376 ft 135 kts 191°
2026-04-25 12:22 61.18432 23.29559 1365 ft 141 kts 174°
2026-04-25 12:22 61.17489 23.30141 1407 ft 142 kts 167°
2026-04-25 12:22 61.16565 23.30948 1416 ft 146 kts 160°
2026-04-25 12:22 61.15687 23.31942 1465 ft 145 kts 154°
2026-04-25 12:23 61.14800 23.32988 1490 ft 146 kts 155°
2026-04-25 12:23 61.13912 23.34018 1545 ft 147 kts 156°
2026-04-25 12:23 61.13004 23.35000 1537 ft 150 kts 159°
2026-04-25 12:23 61.12070 23.35919 1542 ft 147 kts 159°
2026-04-25 12:24 61.11152 23.36858 1589 ft 148 kts 157°
2026-04-25 12:24 61.10251 23.37928 1585 ft 150 kts 154°
2026-04-25 12:24 61.09343 23.38953 1626 ft 148 kts 158°
2026-04-25 12:24 61.08444 23.40030 1631 ft 151 kts 157°
2026-04-25 12:25 61.07844 23.40735 1653 ft 148 kts 155°
2026-04-25 12:25 61.06668 23.42199 1686 ft 150 kts 158°
2026-04-25 12:25 61.05704 23.43004 1721 ft 147 kts 172°
2026-04-25 12:25 61.04713 23.43279 1781 ft 142 kts 192°
2026-04-25 12:26 61.03789 23.42906 1834 ft 130 kts 207°
2026-04-25 12:26 61.02956 23.42334 1892 ft 126 kts 209°
2026-04-25 12:26 61.02134 23.41704 1863 ft 127 kts 209°
2026-04-25 12:26 61.01298 23.41085 1898 ft 126 kts 210°
2026-04-25 12:27 61.00480 23.40473 1912 ft 126 kts 209°
2026-04-25 12:27 60.99646 23.39955 1914 ft 127 kts 206°
2026-04-25 12:27 60.98812 23.39418 1939 ft 126 kts 209°
2026-04-25 12:27 60.97974 23.38837 1936 ft 126 kts 208°
2026-04-25 12:28 60.97135 23.38313 1946 ft 127 kts 207°
2026-04-25 12:28 60.96305 23.37715 1961 ft 125 kts 213°
2026-04-25 12:28 60.95518 23.36979 1978 ft 122 kts 217°
2026-04-25 12:28 60.94773 23.36178 1987 ft 121 kts 218°
2026-04-25 12:29 60.94050 23.35310 2008 ft 120 kts 223°
2026-04-25 12:29 60.93365 23.34330 2024 ft 121 kts 225°
2026-04-25 12:29 60.92671 23.33362 2032 ft 121 kts 223°
2026-04-25 12:29 60.91949 23.32458 2035 ft 122 kts 221°
2026-04-25 12:30 60.91207 23.31561 2031 ft 124 kts 220°
2026-04-25 12:30 60.90455 23.30733 2030 ft 123 kts 216°
2026-04-25 12:30 60.89662 23.30070 2017 ft 125 kts 209°
2026-04-25 12:30 60.88843 23.29410 2030 ft 125 kts 214°
2026-04-25 12:31 60.88078 23.28602 2053 ft 123 kts 218°
2026-04-25 12:31 60.87334 23.27768 2078 ft 122 kts 218°
2026-04-25 12:31 60.86569 23.26953 2102 ft 124 kts 216°
2026-04-25 12:31 60.85781 23.26230 2119 ft 124 kts 213°
2026-04-25 12:32 60.84970 23.25571 2149 ft 125 kts 211°
2026-04-25 12:32 60.84133 23.25061 2145 ft 128 kts 204°
2026-04-25 12:32 60.83247 23.24738 2154 ft 129 kts 198°
2026-04-25 12:32 60.82333 23.24619 2139 ft 134 kts 190°
2026-04-25 12:33 60.81392 23.24774 2112 ft 138 kts 181°
2026-04-25 12:33 60.80456 23.25159 2108 ft 141 kts 176°
2026-04-25 12:33 60.79489 23.25647 2120 ft 143 kts 174°
2026-04-25 12:33 60.78521 23.26202 2144 ft 144 kts 172°
2026-04-25 12:34 60.77561 23.26727 2194 ft 142 kts 174°
2026-04-25 12:34 60.76599 23.27125 2225 ft 142 kts 178°
2026-04-25 12:34 60.75621 23.27370 2260 ft 140 kts 182°
2026-04-25 12:34 60.75290 23.27431 2273 ft 141 kts 184°
2026-04-25 12:35 60.73676 23.27678 2325 ft 140 kts 184°
2026-04-25 12:35 60.72716 23.27928 2330 ft 140 kts 182°
2026-04-25 12:35 60.71759 23.28178 2350 ft 139 kts 183°
2026-04-25 12:35 60.70798 23.28381 2365 ft 138 kts 186°
2026-04-25 12:36 60.69852 23.28446 2387 ft 136 kts 189°
2026-04-25 12:36 60.68905 23.28398 2403 ft 135 kts 192°
2026-04-25 12:36 60.67978 23.28235 2424 ft 134 kts 195°
2026-04-25 12:36 60.67044 23.27974 2451 ft 135 kts 197°
2026-04-25 12:37 60.66117 23.27711 2476 ft 136 kts 196°
2026-04-25 12:37 60.65185 23.27458 2501 ft 135 kts 196°
2026-04-25 12:37 60.64247 23.27227 2520 ft 135 kts 195°
2026-04-25 12:37 60.63323 23.27027 2527 ft 134 kts 194°
2026-04-25 12:38 60.62388 23.26845 2535 ft 134 kts 194°
2026-04-25 12:38 60.61466 23.26632 2566 ft 134 kts 199°
2026-04-25 12:38 60.60573 23.26152 2587 ft 131 kts 207°
2026-04-25 12:38 60.59738 23.25438 2599 ft 130 kts 214°
2026-04-25 12:39 60.58954 23.24554 2574 ft 128 kts 219°
2026-04-25 12:39 60.58213 23.23599 2602 ft 126 kts 221°
2026-04-25 12:39 60.57458 23.22634 2588 ft 127 kts 220°
2026-04-25 12:39 60.56742 23.21629 2612 ft 124 kts 225°
2026-04-25 12:40 60.56084 23.20497 2622 ft 124 kts 231°
2026-04-25 12:40 60.55484 23.19250 2630 ft 122 kts 236°
2026-04-25 12:40 60.54896 23.18025 2626 ft 123 kts 231°
2026-04-25 12:40 60.54266 23.16830 2626 ft 124 kts 229°
2026-04-25 12:41 60.53833 23.16080 2625 ft 123 kts 226°
2026-04-25 12:41 60.53138 23.15062 2620 ft 124 kts 221°
2026-04-25 12:41 60.52103 23.13939 2592 ft 129 kts 213°
2026-04-25 12:41 60.51552 23.13444 2584 ft 130 kts 212°
2026-04-25 12:42 60.50418 23.12578 2536 ft 133 kts 207°
2026-04-25 12:42 60.50114 23.12404 2522 ft 135 kts 205°
2026-04-25 12:42 60.48855 23.12113 2479 ft 139 kts 194°
2026-04-25 12:42 60.47887 23.11956 2509 ft 140 kts 195°
2026-04-25 12:43 60.46910 23.11768 2491 ft 141 kts 198°
2026-04-25 12:43 60.45983 23.11305 2519 ft 136 kts 208°
2026-04-25 12:43 60.44269 23.09866 2556 ft 132 kts 217°
2026-04-25 12:44 60.43468 23.09001 2546 ft 129 kts 219°
2026-04-25 12:44 60.42696 23.08079 2536 ft 128 kts 222°
2026-04-25 12:44 60.41368 23.05802 2549 ft 122 kts 235°
2026-04-25 12:45 60.40809 23.04516 2561 ft 121 kts 240°
2026-04-25 12:45 60.40288 23.03185 2588 ft 120 kts 244°
2026-04-25 12:45 60.39291 23.00464 2568 ft 120 kts 240°
2026-04-25 12:46 60.38734 22.99164 2525 ft 124 kts 236°
2026-04-25 12:46 60.38141 22.97901 2527 ft 125 kts 234°
2026-04-25 12:46 60.37542 22.96621 2531 ft 124 kts 237°
2026-04-25 12:46 60.36998 22.95299 2542 ft 123 kts 240°
2026-04-25 12:47 60.36493 22.93892 2550 ft 122 kts 244°
2026-04-25 12:47 60.36045 22.92447 2543 ft 120 kts 248°
2026-04-25 12:47 60.35624 22.91044 2519 ft 117 kts 245°
2026-04-25 12:47 60.35217 22.89623 2512 ft 116 kts 250°
2026-04-25 12:48 60.34841 22.88187 2514 ft 117 kts 248°
2026-04-25 12:48 60.34364 22.86838 2490 ft 122 kts 236°
2026-04-25 12:48 60.33702 22.85699 2463 ft 127 kts 224°
2026-04-25 12:48 60.32903 22.84888 2423 ft 132 kts 213°
2026-04-25 12:49 60.32117 22.83953 2445 ft 128 kts 230°
2026-04-25 12:49 60.31543 22.82672 2489 ft 120 kts 245°
2026-04-25 12:49 60.31162 22.81214 2502 ft 117 kts 253°
2026-04-25 12:49 60.30911 22.79657 2508 ft 116 kts 265°
2026-04-25 12:50 60.30854 22.78080 2512 ft 113 kts 275°
2026-04-25 12:50 60.30913 22.76518 2510 ft 111 kts 277°
2026-04-25 12:50 60.30920 22.74955 2493 ft 111 kts 269°
2026-04-25 12:50 60.30778 22.73417 2472 ft 112 kts 259°
2026-04-25 12:51 60.30470 22.71956 2452 ft 115 kts 248°
2026-04-25 12:51 60.30031 22.70579 2448 ft 117 kts 245°
2026-04-25 12:51 60.29634 22.69174 2453 ft 116 kts 252°
2026-04-25 12:51 60.29362 22.67635 2451 ft 117 kts 264°
2026-04-25 12:52 60.29271 22.66039 2471 ft 112 kts 274°
2026-04-25 12:52 60.29115 22.64509 2432 ft 116 kts 257°
2026-04-25 12:52 60.28690 22.63056 2364 ft 125 kts 245°
2026-04-25 12:52 60.28194 22.61616 2379 ft 124 kts 247°
2026-04-25 12:53 60.27711 22.60153 2358 ft 125 kts 249°
2026-04-25 12:53 60.27278 22.58664 2380 ft 123 kts 251°
2026-04-25 12:53 60.26841 22.57167 2357 ft 124 kts 249°
2026-04-25 12:53 60.26371 22.55702 2351 ft 125 kts 246°
2026-04-25 12:54 60.25864 22.54274 2342 ft 125 kts 245°
2026-04-25 12:54 60.25352 22.52879 2330 ft 125 kts 245°
2026-04-25 12:54 60.24837 22.51459 2336 ft 125 kts 246°
2026-04-25 12:54 60.24366 22.49997 2346 ft 123 kts 251°
2026-04-25 12:55 60.24016 22.48445 2369 ft 120 kts 262°
2026-04-25 12:55 60.23885 22.47380 2374 ft 117 kts 269°
2026-04-25 12:55 60.23755 22.45269 2384 ft 113 kts 272°
2026-04-25 12:55 60.23627 22.43693 2361 ft 114 kts 268°
2026-04-25 12:56 60.23428 22.42137 2348 ft 115 kts 263°
2026-04-25 12:56 60.23162 22.40617 2329 ft 118 kts 259°
2026-04-25 12:56 60.22825 22.39087 2314 ft 120 kts 255°
2026-04-25 12:56 60.22435 22.37582 2306 ft 122 kts 252°
2026-04-25 12:57 60.22018 22.36106 2294 ft 123 kts 250°
2026-04-25 12:57 60.21575 22.34630 2279 ft 123 kts 249°
2026-04-25 12:57 60.21133 22.33171 2261 ft 122 kts 252°
2026-04-25 12:57 60.20811 22.31629 2274 ft 117 kts 264°
2026-04-25 12:58 60.20708 22.30043 2299 ft 112 kts 278°
2026-04-25 12:58 60.20791 22.28519 2308 ft 108 kts 288°
2026-04-25 12:58 60.20977 22.27063 2308 ft 107 kts 292°
2026-04-25 12:58 60.21219 22.25663 2315 ft 106 kts 297°
2026-04-25 12:59 60.21589 22.24394 2325 ft 105 kts 310°
2026-04-25 12:59 60.22088 22.23306 2330 ft 104 kts 312°
2026-04-25 12:59 60.22510 22.22127 2321 ft 106 kts 301°
2026-04-25 12:59 60.22821 22.20789 2327 ft 107 kts 292°
2026-04-25 13:00 60.23037 22.19323 2323 ft 109 kts 291°
2026-04-25 13:00 60.23184 22.18373 2350 ft 107 kts 294°
2026-04-25 13:00 60.23540 22.16517 2349 ft 106 kts 297°
2026-04-25 13:00 60.23858 22.15189 2362 ft 105 kts 300°
2026-04-25 13:01 60.24141 22.13849 2350 ft 106 kts 293°
2026-04-25 13:01 60.24349 22.12418 2357 ft 107 kts 287°
2026-04-25 13:01 60.24449 22.10915 2345 ft 109 kts 281°
2026-04-25 13:01 60.24456 22.09400 2340 ft 111 kts 276°
2026-04-25 13:02 60.24424 22.07839 2340 ft 111 kts 277°
2026-04-25 13:02 60.24412 22.06281 2348 ft 111 kts 276°
2026-04-25 13:02 60.24347 22.04719 2363 ft 112 kts 271°
2026-04-25 13:02 60.24234 22.03173 2375 ft 113 kts 271°
2026-04-25 13:03 60.24170 22.01602 2386 ft 112 kts 277°
2026-04-25 13:03 60.24146 22.00040 2392 ft 111 kts 276°
2026-04-25 13:03 60.24075 21.98489 2382 ft 113 kts 271°
2026-04-25 13:03 60.23941 21.96915 2382 ft 114 kts 268°
2026-04-25 13:04 60.23770 21.95354 2404 ft 116 kts 266°
2026-04-25 13:04 60.23589 21.93764 2410 ft 116 kts 268°
2026-04-25 13:04 60.23450 21.92183 2423 ft 115 kts 271°
2026-04-25 13:04 60.23345 21.90605 2441 ft 114 kts 272°
2026-04-25 13:05 60.23129 21.89006 2392 ft 126 kts 258°
2026-04-25 13:05 60.22724 21.87395 2421 ft 129 kts 258°
2026-04-25 13:05 60.22350 21.85748 2430 ft 130 kts 263°
2026-04-25 13:05 60.22055 21.84065 2457 ft 127 kts 267°
2026-04-25 13:06 60.21825 21.82367 2481 ft 125 kts 271°
2026-04-25 13:06 60.21655 21.80658 2496 ft 123 kts 275°
2026-04-25 13:06 60.21541 21.78971 2529 ft 121 kts 278°
2026-04-25 13:06 60.21461 21.77294 2535 ft 120 kts 278°
2026-04-25 13:07 60.21374 21.75623 2537 ft 120 kts 277°
2026-04-25 13:07 60.21260 21.73983 2524 ft 120 kts 275°
2026-04-25 13:07 60.21104 21.72321 2515 ft 121 kts 274°
2026-04-25 13:07 60.21023 21.70648 2542 ft 118 kts 285°
2026-04-25 13:08 60.21145 21.69055 2559 ft 112 kts 295°
2026-04-25 13:08 60.21278 21.67521 2550 ft 112 kts 289°
2026-04-25 13:08 60.21291 21.65916 2509 ft 117 kts 279°
2026-04-25 13:08 60.21184 21.64290 2503 ft 120 kts 272°
2026-04-25 13:09 60.20973 21.62632 2475 ft 125 kts 266°
2026-04-25 13:09 60.20672 21.60962 2477 ft 128 kts 261°
2026-04-25 13:09 60.20303 21.59295 2471 ft 131 kts 259°
2026-04-25 13:09 60.19923 21.57670 2491 ft 130 kts 259°
2026-04-25 13:10 60.19537 21.56011 2491 ft 130 kts 259°
2026-04-25 13:10 60.19142 21.54390 2491 ft 131 kts 258°
2026-04-25 13:10 60.18739 21.52734 2500 ft 131 kts 259°
2026-04-25 13:10 60.18353 21.51092 2502 ft 130 kts 260°
2026-04-25 13:11 60.17965 21.49457 2516 ft 130 kts 258°
2026-04-25 13:11 60.17514 21.47839 2500 ft 134 kts 252°
2026-04-25 13:11 60.16971 21.46307 2473 ft 137 kts 245°
2026-04-25 13:11 60.16319 21.44872 2457 ft 140 kts 240°
2026-04-25 13:12 60.15716 21.43349 2499 ft 137 kts 252°
2026-04-25 13:12 60.15260 21.41728 2526 ft 133 kts 256°
2026-04-25 13:12 60.14806 21.40113 2514 ft 132 kts 256°
2026-04-25 13:12 60.14499 21.39039 2499 ft 133 kts 256°
2026-04-25 13:13 60.13890 21.36914 2497 ft 132 kts 255°
2026-04-25 13:13 60.13426 21.35312 2478 ft 132 kts 257°
2026-04-25 13:13 60.13041 21.33685 2496 ft 128 kts 262°
2026-04-25 13:13 60.12724 21.32029 2508 ft 126 kts 266°
2026-04-25 13:14 60.12463 21.30355 2524 ft 124 kts 269°
2026-04-25 13:14 60.12246 21.28696 2540 ft 123 kts 271°
2026-04-25 13:14 60.12062 21.27015 2552 ft 122 kts 273°
2026-04-25 13:14 60.11905 21.25361 2565 ft 121 kts 275°
2026-04-25 13:15 60.11776 21.23688 2585 ft 120 kts 277°
2026-04-25 13:15 60.11680 21.22027 2610 ft 119 kts 279°
2026-04-25 13:15 60.11604 21.20381 2609 ft 118 kts 280°
2026-04-25 13:15 60.11577 21.18762 2615 ft 116 kts 284°
2026-04-25 13:16 60.11618 21.17166 2616 ft 113 kts 289°
2026-04-25 13:16 60.11710 21.15606 2603 ft 112 kts 291°
2026-04-25 13:16 60.11817 21.14064 2597 ft 111 kts 291°
2026-04-25 13:16 60.11917 21.12525 2586 ft 112 kts 290°
2026-04-25 13:17 60.12029 21.10988 2595 ft 111 kts 293°
2026-04-25 13:17 60.12190 21.09504 2598 ft 109 kts 296°
2026-04-25 13:17 60.12373 21.08018 2565 ft 112 kts 297°
2026-04-25 13:17 60.12565 21.06495 2576 ft 113 kts 298°
2026-04-25 13:18 60.12775 21.04976 2574 ft 113 kts 300°
2026-04-25 13:18 60.12992 21.03481 2564 ft 113 kts 300°
2026-04-25 13:18 60.13197 21.01971 2553 ft 113 kts 298°
2026-04-25 13:18 60.13393 21.00441 2549 ft 113 kts 299°
2026-04-25 13:19 60.13615 20.98946 2542 ft 111 kts 302°
2026-04-25 13:19 60.13873 20.97499 2538 ft 109 kts 303°
2026-04-25 13:19 60.14135 20.96088 2514 ft 109 kts 303°
2026-04-25 13:19 60.14224 20.95605 2524 ft 110 kts 303°
2026-04-25 13:20 60.14561 20.93668 2498 ft 110 kts 301°
2026-04-25 13:20 60.14859 20.91713 2474 ft 111 kts 299°
2026-04-25 13:20 60.15081 20.90234 2469 ft 110 kts 301°
2026-04-25 13:20 60.15353 20.88800 2471 ft 109 kts 307°
2026-04-25 13:21 60.15701 20.87494 2480 ft 106 kts 313°
2026-04-25 13:21 60.16115 20.86298 2483 ft 103 kts 318°
2026-04-25 13:21 60.16569 20.85190 2473 ft 102 kts 321°
2026-04-25 13:21 60.17061 20.84166 2462 ft 101 kts 325°
2026-04-25 13:22 60.17592 20.83280 2443 ft 100 kts 329°
2026-04-25 13:22 60.18154 20.82459 2419 ft 99 kts 332°
2026-04-25 13:22 60.18728 20.81694 2397 ft 99 kts 332°
2026-04-25 13:23 60.19854 20.80098 2324 ft 100 kts 327°
2026-04-25 13:23 60.20390 20.79179 2277 ft 101 kts 325°
2026-04-25 13:23 60.20905 20.78201 2225 ft 102 kts 323°
2026-04-25 13:23 60.21402 20.77174 2186 ft 102 kts 321°
2026-04-25 13:24 60.21875 20.76114 2137 ft 104 kts 319°
2026-04-25 13:24 60.22334 20.74995 2085 ft 104 kts 317°
2026-04-25 13:24 60.22779 20.73856 2050 ft 103 kts 316°
2026-04-25 13:24 60.23204 20.72682 1994 ft 104 kts 313°
2026-04-25 13:25 60.23552 20.71391 1931 ft 107 kts 303°
2026-04-25 13:25 60.23724 20.69895 1852 ft 114 kts 289°
2026-04-25 13:25 60.23791 20.68282 1842 ft 115 kts 289°
2026-04-25 13:25 60.23853 20.66688 1804 ft 116 kts 289°
2026-04-25 13:26 60.23919 20.65066 1783 ft 115 kts 289°
2026-04-25 13:26 60.23981 20.63449 1762 ft 115 kts 290°
2026-04-25 13:26 60.24087 20.61868 1761 ft 114 kts 293°
2026-04-25 13:26 60.24193 20.60292 1738 ft 114 kts 290°
2026-04-25 13:27 60.24267 20.58687 1732 ft 115 kts 289°
2026-04-25 13:27 60.24313 20.57084 1728 ft 117 kts 287°
2026-04-25 13:27 60.24334 20.55432 1724 ft 118 kts 285°
2026-04-25 13:27 60.24338 20.53786 1655 ft 118 kts 286°
2026-04-25 13:28 60.24365 20.52117 1524 ft 118 kts 288°
2026-04-25 13:28 60.24384 20.51585 1490 ft 117 kts 289°
2026-04-25 13:28 60.24556 20.48918 1178 ft 115 kts 292°
2026-04-25 13:28 60.24615 20.47317 991 ft 116 kts 285°
2026-04-25 13:29 60.24556 20.45643 756 ft 123 kts 277°
2026-04-25 13:29 60.24441 20.43922 581 ft 126 kts 273°
2026-04-25 13:29 60.24200 20.42154 689 ft 132 kts 253°
2026-04-25 13:30 60.23120 20.39028 809 ft 142 kts 252°
2026-04-25 13:30 60.22717 20.37364 1023 ft 129 kts 259°
2026-04-25 13:30 60.22337 20.35631 891 ft 135 kts 267°
2026-04-25 13:31 60.21716 20.32396 940 ft 133 kts 261°
2026-04-25 13:31 60.21392 20.30818 1106 ft 119 kts 262°
2026-04-25 13:31 60.21043 20.29200 870 ft 130 kts 260°
2026-04-25 13:31 60.20705 20.27705 997 ft 113 kts 264°
2026-04-25 13:32 60.20511 20.26093 874 ft 118 kts 280°
2026-04-25 13:32 60.20503 20.24623 899 ft 102 kts 292°
2026-04-25 13:32 60.20576 20.23140 760 ft 107 kts 291°
2026-04-25 13:32 60.20680 20.21712 782 ft 103 kts 292°
2026-04-25 13:33 60.20844 20.20267 756 ft 105 kts 301°
2026-04-25 13:33 60.20974 20.18882 768 ft 102 kts 285°
2026-04-25 13:33 60.20792 20.17386 710 ft 117 kts 262°
2026-04-25 13:33 60.20667 20.16906 710 ft 122 kts 254°
2026-04-25 13:34 60.19580 20.14870 762 ft 131 kts 229°
2026-04-25 13:34 60.18877 20.13667 800 ft 134 kts 232°
2026-04-25 13:34 60.18153 20.12445 868 ft 132 kts 234°
2026-04-25 13:34 60.17499 20.11186 906 ft 132 kts 232°
2026-04-25 13:35 60.16745 20.10098 952 ft 132 kts 225°
2026-04-25 13:35 60.16028 20.08957 1031 ft 132 kts 232°
2026-04-25 13:35 60.15372 20.07712 1132 ft 126 kts 240°
2026-04-25 13:35 60.14819 20.06410 1143 ft 123 kts 244°
2026-04-25 13:36 60.14238 20.05112 1083 ft 125 kts 238°
2026-04-25 13:36 60.13608 20.03906 1022 ft 126 kts 237°
2026-04-25 13:36 60.13009 20.02655 962 ft 125 kts 241°
2026-04-25 13:36 60.12458 20.01339 902 ft 126 kts 248°
2026-04-25 13:37 60.11920 19.99984 904 ft 122 kts 249°
2026-04-25 13:37 60.11470 19.98583 851 ft 119 kts 246°
2026-04-25 13:37 60.11047 19.97143 829 ft 119 kts 259°
2026-04-25 13:37 60.10684 19.95684 810 ft 114 kts 262°
2026-04-25 13:38 60.10286 19.94396 717 ft 109 kts 255°
2026-04-25 13:38 60.09879 19.93101 598 ft 108 kts 245°
2026-04-25 13:38 60.09406 19.91917 602 ft 105 kts 248°
2026-04-25 13:38 60.09090 19.90627 640 ft 102 kts 260°
2026-04-25 13:39 60.08934 19.89741 642 ft 101 kts 268°
2026-04-25 13:39 60.09196 19.88177 656 ft 77 kts 338°
2026-04-25 13:39 60.09665 19.87976 604 ft 71 kts
2026-04-25 13:39 60.10017 19.88052 524 ft 79 kts
2026-04-25 13:40 60.10697 19.88518 289 ft 75 kts 19°
2026-04-25 13:40 60.10999 19.88792 203 ft 72 kts 15°
2026-04-25 13:40 60.11578 19.89307 31 ft 54 kts 18°
2026-04-25 13:40 60.11780 19.89481 16 ft 39 kts 13°
2026-04-25 13:41 60.11940 19.89590 11 ft 15 kts 24°
2026-04-25 13:41 60.12059 19.89668 10 ft 22 kts 21°
2026-04-25 13:41 60.12248 19.89811 9 ft 22 kts 358°
2026-04-25 13:41 60.12318 19.89893 11 ft 20 kts 26°
2026-04-25 13:42 60.12456 19.90020 12 ft 24 kts 26°
2026-04-25 13:42 60.12542 19.90176 10 ft 17 kts 72°
2026-04-25 13:42 60.12524 19.90345 10 ft 13 kts 109°
2026-04-25 13:42 60.12501 19.90474 11 ft 10 kts 114°
2026-04-25 13:43 60.12505 19.90570 11 ft 5 kts 77°
2026-04-25 13:43 60.12500 19.90608 11 ft 4 kts 143°
2026-04-25 13:43 60.12466 19.90666 12 ft 0 kts 127°